Cairns, Queensland

10:39 AM AEST on September 29, 2016 (GMT +1000)
Cairns International

Weather History for YBCS - January, 2014

Change the Weather History Date:

Monday, January 27, 2014

  Actual Average Record
Temperature  
Mean Temperature 80 °F -  
Max Temperature 87 °F 86 °F 98 °F (2013)
Min Temperature 74 °F 73 °F 71 °F (2008)
Cooling Degree Days 16    
Growing Degree Days 30 (Base 50)    
Moisture  
Dew Point 75 °F    
Average Humidity 84    
Maximum Humidity 100    
Minimum Humidity 59    
Precipitation  
Precipitation 0.87 in - - ()
Sea Level Pressure  
Sea Level Pressure 29.72 in    
Wind  
Wind Speed 14 mph ()    
Max Wind Speed 25 mph    
Max Gust Speed 36 mph    
Visibility 6.1 miles    
Events Rain    
Averages and records for this station are not official NWS values.
T = Trace of Precipitation, MM = Missing Value Source: Averaged Metar Reports

Daily Weather History Graph

Daily Weather History Graph

Search for Another Location

Airport or City:

Trip Planner

Search our weather history database for the weather conditions in past years. The results will help you decide how hot, cold, wet, or windy it might be!

Date:

Astronomy

Jan. 27, 2014 Rise Set
Actual Time 6:02 AM AEST 6:56 PM AEST
Civil Twilight 5:39 AM AEST 7:19 PM AEST
Nautical Twilight 5:12 AM AEST 7:46 PM AEST
Astronomical Twilight 4:44 AM AEST 8:14 PM AEST
Moon 1:56 AM AEST (1/27) 3:13 PM AEST (1/27)
Length of Visible Light 13h 40m
Length of Day
12h 54m
Waning Crescent, 20% of the Moon is Illuminated
Jan 27
Waning Crescent
Jan 31
New
Feb 7
First Quarter
Feb 15
Full
Feb 23
Last Quarter

Hourly Weather History & Observations

Time (AEST) Temp. Heat Index Dew Point Humidity Pressure Visibility Wind Dir Wind Speed Gust Speed Precip Events Conditions
12:00 AM 76 °F - 75 °F 94% 29.77 in 6 mi South 15.0 mph - -   Overcast
12:00 AM 75.2 °F - 75.2 °F 100% 29.77 in 5.0 mi South 15.0 mph - N/A Rain Light Rain Showers
12:25 AM 77.0 °F - 75.2 °F 94% 29.77 in 2.5 mi SSE 11.5 mph - N/A Rain Rain Showers
12:30 AM 75.2 °F - 75.2 °F 100% 29.74 in 5.6 mi SSE 11.5 mph - N/A Rain Light Rain Showers
1:00 AM 77 °F - 75 °F 91% 29.75 in - South 10.4 mph - -  
1:00 AM 77.0 °F - 75.2 °F 94% 29.74 in 5.6 mi South 10.4 mph - N/A Rain Light Rain Showers
1:18 AM 77.0 °F - 75.2 °F 94% 29.74 in 2.5 mi South 10.4 mph - N/A Rain Rain Showers
1:30 AM 75.2 °F - 75.2 °F 100% 29.74 in 5.0 mi South 12.7 mph - N/A Rain Light Rain Showers
1:48 AM 75.2 °F - 73.4 °F 94% 29.74 in 2.5 mi South 13.8 mph - N/A Rain Light Rain Showers
2:00 AM 75.2 °F - 73.4 °F 94% 29.74 in 5.0 mi South 12.7 mph 24.2 mph N/A Rain Light Rain Showers
2:30 AM 75.2 °F - 71.6 °F 89% 29.71 in 6.2 mi South 13.8 mph - N/A Rain Light Rain Showers
3:00 AM 76 °F - 71 °F 80% 29.70 in - SSW 12.7 mph - -   Overcast
3:00 AM 77.0 °F - 71.6 °F 83% 29.68 in 6.2 mi South 12.7 mph - N/A   Scattered Clouds
3:30 AM 77.0 °F - 71.6 °F 83% 29.71 in 6.2 mi SSE 10.4 mph - N/A   Mostly Cloudy
4:00 AM 76 °F - 72 °F 83% 29.72 in - SSW 15.0 mph - -  
4:00 AM 77.0 °F - 71.6 °F 83% 29.71 in 6.2 mi SSW 15.0 mph - N/A Rain Light Rain Showers
4:30 AM 77.0 °F - 71.6 °F 83% 29.71 in 5.0 mi South 10.4 mph - N/A Rain Light Rain Showers
5:00 AM 77.0 °F - 71.6 °F 83% 29.71 in 6.2 mi SSW 12.7 mph - N/A   Mostly Cloudy
5:30 AM 77.0 °F - 71.6 °F 83% 29.71 in 6.2 mi South 13.8 mph - N/A   Mostly Cloudy
6:00 AM 78 °F - 72 °F 77% 29.73 in 16 mi South 15.0 mph - -   Partly Cloudy
6:00 AM 77.0 °F - 71.6 °F 83% 29.71 in 6.2 mi South 15.0 mph - N/A   Mostly Cloudy
6:30 AM 77.0 °F - 73.4 °F 89% 29.74 in 6.2 mi South 15.0 mph - N/A Rain Light Rain Showers
6:47 AM 77.0 °F - 73.4 °F 89% 29.74 in 3.1 mi South 12.7 mph - N/A Rain Light Rain Showers
7:00 AM 77 °F - 73 °F 85% 29.76 in - South 11.5 mph - -  
7:00 AM 77.0 °F - 73.4 °F 89% 29.74 in 6.2 mi South 11.5 mph - N/A   Mostly Cloudy
7:30 AM 78.8 °F - 73.4 °F 83% 29.74 in 6.2 mi South 12.7 mph - N/A   Mostly Cloudy
8:00 AM 80.6 °F 85.4 °F 73.4 °F 79% 29.74 in 6.2 mi South 12.7 mph - N/A   Mostly Cloudy
8:30 AM 78.8 °F - 73.4 °F 83% 29.77 in 6.2 mi South 11.5 mph - N/A   Mostly Cloudy
9:00 AM 79 °F - 76 °F 86% 29.77 in 12 mi South 13.8 mph - - Rain Light Rain Showers
9:00 AM 78.8 °F - 75.2 °F 89% 29.77 in 6.2 mi South 13.8 mph - N/A Rain Light Rain Showers
9:30 AM 80.6 °F 87.1 °F 77.0 °F 89% 29.77 in 6.2 mi South 10.4 mph - N/A   Mostly Cloudy
10:00 AM 83 °F - 76 °F 74% 29.78 in - SSE 17.3 mph - -  
10:00 AM 84.2 °F 94.1 °F 77.0 °F 79% 29.77 in 6.2 mi SSE 17.3 mph - N/A   Mostly Cloudy
10:30 AM 86.0 °F 95.1 °F 75.2 °F 70% 29.74 in 6.2 mi SSE 19.6 mph - N/A   Mostly Cloudy
11:00 AM 84.2 °F 94.1 °F 77.0 °F 79% 29.74 in 6.2 mi SSE 19.6 mph - N/A   Mostly Cloudy
11:37 AM 86.0 °F 93.4 °F 73.4 °F 66% 29.74 in 6.2 mi SE 19.6 mph 32.2 mph N/A   Mostly Cloudy
12:00 PM 86 °F - 75 °F 63% 29.74 in 16 mi SE 19.6 mph - -   Mostly Cloudy
12:00 PM 86.0 °F 95.1 °F 75.2 °F 70% 29.74 in 6.2 mi SE 19.6 mph - N/A   Mostly Cloudy
12:30 PM 86.0 °F 95.1 °F 75.2 °F 70% 29.71 in 6.2 mi SE 21.9 mph - N/A   Mostly Cloudy
12:54 PM 86.0 °F 93.4 °F 73.4 °F 66% 29.71 in 6.2 mi SE 21.9 mph 33.4 mph N/A   Mostly Cloudy
1:00 PM 87 °F - 75 °F 59% 29.73 in - SE 21.9 mph - -  
1:00 PM 87.8 °F 97.6 °F 75.2 °F 66% 29.71 in 6.2 mi SE 21.9 mph 33.4 mph N/A   Mostly Cloudy
1:30 PM 86.0 °F 95.1 °F 75.2 °F 70% 29.71 in 6.2 mi SE 25.3 mph - N/A   Mostly Cloudy
1:57 PM 82.4 °F 89.5 °F 75.2 °F 79% 29.71 in 6.2 mi SE 20.7 mph 34.5 mph N/A Rain Light Rain Showers
2:00 PM 80.6 °F 87.1 °F 77.0 °F 89% 29.71 in 6.2 mi SE 21.9 mph 35.7 mph N/A Rain Light Rain Showers
2:30 PM 84.2 °F 94.1 °F 77.0 °F 79% 29.68 in 6.2 mi SE 21.9 mph - N/A Rain Light Rain Showers
2:33 PM 82.4 °F 90.9 °F 77.0 °F 84% 29.68 in 6.2 mi SE 23.0 mph 34.5 mph N/A Rain Light Rain Showers
3:00 PM 81 °F - 76 °F 82% 29.69 in 12 mi SE 23.0 mph - - Rain Light Rain Showers
3:00 PM 80.6 °F 87.1 °F 77.0 °F 89% 29.68 in 6.2 mi SE 23.0 mph - N/A Rain Light Rain Showers
3:30 PM 82.4 °F 89.5 °F 75.2 °F 79% 29.68 in 6.2 mi SSE 23.0 mph - N/A   Mostly Cloudy
4:00 PM 84 °F - 74 °F 66% 29.68 in - SE 20.7 mph - -  
4:00 PM 84.2 °F 92.3 °F 75.2 °F 74% 29.68 in 6.2 mi SE 20.7 mph - N/A Rain Light Rain Showers
4:15 PM 84.2 °F 92.3 °F 75.2 °F 74% 29.65 in 6.2 mi SE 19.6 mph - N/A Rain Light Rain Showers
4:20 PM 82.4 °F 89.5 °F 75.2 °F 79% 29.68 in 6.2 mi SE 19.6 mph 31.1 mph N/A Rain Light Rain Showers
4:30 PM 82.4 °F 89.5 °F 75.2 °F 79% 29.65 in 6.2 mi SE 23.0 mph - N/A Rain Light Rain Showers
4:50 PM 80.6 °F 86.2 °F 75.2 °F 84% 29.68 in 6.2 mi SE 17.3 mph 29.9 mph N/A Rain Light Rain Showers
5:00 PM 80.6 °F 87.1 °F 77.0 °F 89% 29.68 in 6.2 mi SSE 17.3 mph 28.8 mph N/A Rain Light Rain Showers
5:15 PM 80.6 °F 87.1 °F 77.0 °F 89% 29.68 in 2.5 mi SSE 12.7 mph - N/A Rain Rain Showers
5:25 PM 78.8 °F - 75.2 °F 89% 29.68 in 6.2 mi SSE 19.6 mph - N/A   Mostly Cloudy
5:30 PM 78.8 °F - 75.2 °F 89% 29.68 in 6.2 mi SSE 19.6 mph - N/A   Mostly Cloudy
5:33 PM 78.8 °F - 75.2 °F 89% 29.68 in 6.2 mi SSE 18.4 mph 29.9 mph N/A Rain Light Rain Showers
6:00 PM 79 °F - 76 °F 87% 29.70 in - South 11.5 mph - -   Overcast
6:00 PM 78.8 °F - 75.2 °F 89% 29.68 in 6.2 mi South 11.5 mph - N/A Rain Light Rain Showers
6:30 PM 78.8 °F - 75.2 °F 89% 29.71 in 5.6 mi South 13.8 mph - N/A Rain Light Rain Showers
6:44 PM 78.8 °F - 75.2 °F 89% 29.71 in 5.6 mi SSE 18.4 mph 29.9 mph N/A Rain Light Rain Showers
7:00 PM 79 °F - 75 °F 85% 29.72 in - South 18.4 mph - -  
7:00 PM 78.8 °F - 75.2 °F 89% 29.71 in 5.6 mi South 18.4 mph - N/A Rain Light Rain Showers
7:26 PM 78.8 °F - 75.2 °F 89% 29.71 in 3.7 mi South 15.0 mph - N/A Rain Light Rain Showers
7:30 PM 78.8 °F - 75.2 °F 89% 29.71 in 3.7 mi South 16.1 mph 28.8 mph N/A Rain Light Rain Showers
8:00 PM 78.8 °F - 75.2 °F 89% 29.71 in 5.6 mi South 16.1 mph - N/A   Mostly Cloudy
8:30 PM 78.8 °F - 75.2 °F 89% 29.74 in 5.6 mi South 16.1 mph - N/A   Mostly Cloudy
8:49 PM 78.8 °F - 75.2 °F 89% 29.74 in 3.7 mi South 12.7 mph - N/A Rain Rain Showers
9:00 PM 78 °F - 76 °F 91% 29.74 in 5 mi South 15.0 mph - -   Overcast
9:00 PM 78.8 °F - 75.2 °F 89% 29.74 in 5.0 mi South 15.0 mph 27.6 mph N/A Rain Light Rain Showers
9:30 PM 78.8 °F - 75.2 °F 89% 29.74 in 6.2 mi South 12.7 mph - N/A   Mostly Cloudy
10:00 PM 79 °F - 75 °F 85% 29.75 in - South 15.0 mph - -  
10:00 PM 78.8 °F - 75.2 °F 89% 29.74 in 6.2 mi South 15.0 mph - N/A   Mostly Cloudy
10:30 PM 78.8 °F - 75.2 °F 89% 29.74 in 5.6 mi South 12.7 mph - N/A Rain Light Rain Showers
11:00 PM 78.8 °F - 75.2 °F 89% 29.74 in 6.2 mi South 15.0 mph - N/A   Mostly Cloudy
11:30 PM 78.8 °F - 75.2 °F 89% 29.71 in 6.2 mi South 17.3 mph - N/A   Mostly Cloudy